Вернуться в каталог

STARLINK-36101

АктивенСвязьVLEO
NORAD 66867·PAYLOAD·🇺🇸 United States

Запущен Dec 2, 2025 с Cape Canaveral Space Force Station

Loading…

Ближайшие Пролёты (ближайшие 24 часа)

TLE

СвежийSource: CelesTrak SupGP

Эпоха: Sep 15, 2026, 03:05 UTC

1 66867C 25281V   26258.12895833  .00044526  00000+0  16128-2 0  2581
2 66867  43.0037 353.9744 0001626 268.6490  93.6682 15.27554177    16

Отслеживайте STARLINK-36101 в реальном времени с AllMySat

Download on the App Store